Location: Mococo
(38.0255°N, 122.1161°W)
Time: 00:43:58
(UTC+00:00)

Cosmos 2100 Rocket - Pass Details

Date: 20 May 2026
Orbit: 956 x 999 km, 82.9° (Epoch: 10 June)

Event Time Altitude Azimuth Distance (km) Brightness Sun altitude
Rises 04:37:52 0° 228° (SW) 3,664 7.1 -14.3°
Reaches altitude 10° 04:41:09 10° 245° (WSW) 2,729 6.7 -14.8°
Maximum altitude 04:45:30 19° 290° (WNW) 2,138 6.7 -15.5°
Drops below altitude 10° 04:49:55 10° 334° (NNW) 2,760 7.5 -16.1°
Sets 04:53:17 0° 352° (N) 3,719 7.9 -16.6°
